Terminal Aerodrome Forecast
Issued by NWS Pittsburgh, PA

Current Version | Previous Version | Graphics & Text | Print | Product List | Glossary On
Versions: 1 2 3 4 5 6 7 8 9 10 11 12 13 14 15 16 17 18 19 20 21 22 23 24 25 26 27 28 29 30 31
000
FTUS41 KPBZ 010400 AAB
TAFPIT
TAF AMD
KPIT 010405Z 0104/0206 01007KT P6SM OVC007
     FM010900 VRB03KT 3SM BR BKN010
     FM011300 14005KT 5SM BR BKN020
     FM011500 12005KT P6SM BKN035=

USA.gov is the U.S. government's official web portal to all federal, state and local government web resources and services.